Weather History for Silver Bay, MN

Change the Weather History Date:

Friday, March 22, 2013

  Actual Average Record
Temperature  
Mean Temperature 18 °F -  
Max Temperature 39 °F 34 °F 55 °F (2012)
Min Temperature -2 °F 14 °F -5 °F (2004)
Degree Days  
Heating Degree Days 46    
Moisture  
Dew Point 7 °F    
Average Humidity 66    
Maximum Humidity 92    
Minimum Humidity 33    
Precipitation  
Precipitation 0.00 in - - ()
Sea Level Pressure  
Sea Level Pressure 30.02 in    
Wind  
Wind Speed 1 mph (SE)    
Max Wind Speed 7 mph    
Max Gust Speed -    
Visibility 10 miles    
Events      
Averages and records for this station are not official NWS values.
T = Trace of Precipitation, MM = Missing Value Source: NWS Daily Summary

Daily Weather History Graph

Daily Weather History Graph

Search for Another Location

Airport:

Trip Planner

Search our weather history database for the weather conditions in past years. The results will help you decide how hot, cold, wet, or windy it might be!

Date:

Astronomy

Mar. 22, 2013 Rise Set
Actual Time 7:04 AM CDT 7:21 PM CDT
Civil Twilight 6:33 AM CDT 7:52 PM CDT
Nautical Twilight 5:57 AM CDT 8:28 PM CDT
Astronomical Twilight 5:20 AM CDT 9:05 PM CDT
Moon 2:33 PM CDT (3/22) 4:21 AM CDT (3/22)
Length of Visible Light 13h 18m
Length of Day
12h 17m
Waxing Gibbous, 77% of the Moon is Illuminated
Mar 22
Waxing Gibbous
Mar 27
Full
Apr 2
Last Quarter
Apr 10
New
Apr 18
First Quarter

Hourly Weather History & Observations

Time (CDT) Temp. Windchill Dew Point Humidity Pressure Visibility Wind Dir Wind Speed Gust Speed Precip Events Conditions
12:13 AM 3.2 °F - -4.0 °F 72% 30.00 in 10.0 mi Calm Calm - N/A   Clear
12:33 AM 3.2 °F - -2.2 °F 78% 30.00 in 10.0 mi Calm Calm - N/A   Clear
12:53 AM 1.4 °F - -4.0 °F 78% 30.00 in 10.0 mi Calm Calm - N/A   Clear
1:13 AM 1.4 °F - -4.0 °F 78% 30.00 in 10.0 mi Calm Calm - N/A   Clear
1:33 AM -0.4 °F - -7.6 °F 72% 30.00 in 10.0 mi Calm Calm - N/A   Clear
1:53 AM 1.4 °F - -5.8 °F 72% 30.00 in 10.0 mi Calm Calm - N/A   Clear
2:13 AM 1.4 °F - -2.2 °F 85% 30.00 in 10.0 mi Calm Calm - N/A   Clear
2:33 AM 3.2 °F - -4.0 °F 72% 30.01 in 10.0 mi Calm Calm - N/A   Clear
2:53 AM 3.2 °F - -2.2 °F 78% 30.01 in 10.0 mi Calm Calm - N/A   Clear
3:13 AM 3.2 °F - -7.6 °F 61% 30.02 in 10.0 mi Calm Calm - N/A   Clear
3:33 AM -0.4 °F - -7.6 °F 72% 30.02 in 10.0 mi Calm Calm - N/A   Clear
3:53 AM -0.4 °F - -7.6 °F 72% 30.02 in 10.0 mi Calm Calm - N/A   Clear
4:13 AM 1.4 °F - -5.8 °F 72% 30.02 in 10.0 mi Calm Calm - N/A   Clear
4:33 AM 1.4 °F - -4.0 °F 78% 30.02 in 10.0 mi Calm Calm - N/A   Clear
4:53 AM 1.4 °F - -2.2 °F 85% 30.01 in 10.0 mi Calm Calm - N/A   Clear
5:13 AM -0.4 °F - -7.6 °F 72% 30.01 in 10.0 mi Calm Calm - N/A   Clear
5:33 AM -0.4 °F - -4.0 °F 85% 30.02 in 10.0 mi Calm Calm - N/A   Clear
5:53 AM -2.2 °F - -9.4 °F 71% 30.02 in 10.0 mi Calm Calm - N/A   Clear
6:13 AM -2.2 °F - -11.2 °F 66% 30.03 in 10.0 mi Calm Calm - N/A   Clear
6:53 AM -2.2 °F - -7.6 °F 78% 30.03 in 10.0 mi Calm Calm - N/A   Clear
7:13 AM -2.2 °F - -7.6 °F 78% 30.03 in 10.0 mi Calm Calm - N/A   Clear
7:33 AM -2.2 °F - -7.6 °F 78% 30.04 in 10.0 mi Calm Calm - N/A   Clear
7:53 AM -0.4 °F - -5.8 °F 78% 30.04 in 10.0 mi Calm Calm - N/A   Clear
8:13 AM 1.4 °F - -2.2 °F 85% 30.04 in 10.0 mi Calm Calm - N/A   Clear
8:33 AM 8.6 °F - 6.8 °F 92% 30.03 in 10.0 mi Calm Calm - N/A   Clear
8:53 AM 12.2 °F 6.1 °F 10.4 °F 92% 30.03 in 10.0 mi NNE 3.5 mph - N/A   Clear
9:13 AM 19.4 °F - 14.0 °F 80% 30.03 in 10.0 mi Calm Calm - N/A   Clear
9:33 AM 23.0 °F - 14.0 °F 68% 30.03 in 10.0 mi Calm Calm - N/A   Clear
9:53 AM 24.8 °F - 14.0 °F 64% 30.03 in 10.0 mi Calm Calm - N/A   Clear
10:13 AM 30.2 °F - 15.8 °F 55% 30.02 in 10.0 mi Calm Calm - N/A   Clear
10:33 AM 32.0 °F - 12.2 °F 44% 30.02 in 10.0 mi Calm Calm - N/A   Clear
10:53 AM 33.8 °F - 12.2 °F 41% 30.03 in 10.0 mi Calm Calm - N/A   Clear
11:13 AM 35.6 °F - 12.2 °F 38% 30.03 in 10.0 mi Calm Calm - N/A   Clear
11:33 AM 37.4 °F - 12.2 °F 36% 30.03 in 10.0 mi Calm Calm - N/A   Clear
11:53 AM 39.2 °F - 12.2 °F 33% 30.03 in 10.0 mi Calm Calm - N/A   Clear
12:14 PM 33.8 °F - 14.0 °F 44% 30.02 in 10.0 mi Calm Calm - N/A   Clear
12:33 PM 33.8 °F 29.6 °F 15.8 °F 48% 30.02 in 10.0 mi East 4.6 mph - N/A   Clear
12:53 PM 35.6 °F 32.8 °F 15.8 °F 44% 30.02 in 10.0 mi ESE 3.5 mph - N/A   Clear
1:13 PM 37.4 °F 32.1 °F 15.8 °F 41% 30.01 in 10.0 mi East 6.9 mph - N/A   Clear
1:33 PM 35.6 °F 32.8 °F 15.8 °F 44% 30.01 in 10.0 mi SE 3.5 mph - N/A   Clear
1:53 PM 33.8 °F 29.6 °F 15.8 °F 48% 30.01 in 10.0 mi SSE 4.6 mph - N/A   Clear
2:13 PM 32.0 °F 25.6 °F 17.6 °F 55% 30.01 in 10.0 mi SSE 6.9 mph - N/A   Clear
2:33 PM 35.6 °F 31.7 °F 17.6 °F 48% 30.01 in 10.0 mi South 4.6 mph - N/A   Clear
2:53 PM 33.8 °F 27.7 °F 17.6 °F 52% 30.00 in 10.0 mi SSE 6.9 mph - N/A   Clear
3:13 PM 33.8 °F 29.6 °F 17.6 °F 52% 30.01 in 10.0 mi SSE 4.6 mph - N/A   Clear
3:33 PM 32.0 °F - 15.8 °F 51% 30.01 in 10.0 mi Calm Calm - N/A   Clear
3:53 PM 30.2 °F 23.4 °F 17.6 °F 60% 30.01 in 10.0 mi SSE 6.9 mph - N/A   Clear
4:13 PM 30.2 °F 23.4 °F 17.6 °F 60% 30.01 in 10.0 mi SSW 6.9 mph - N/A   Clear
4:53 PM 32.0 °F - 15.8 °F 51% 30.01 in 10.0 mi Calm Calm - N/A   Clear
5:13 PM 33.8 °F - 15.8 °F 48% 30.01 in 10.0 mi Calm Calm - N/A   Clear
5:33 PM 32.0 °F - 15.8 °F 51% 30.02 in 10.0 mi Calm Calm - N/A   Clear
5:53 PM 30.2 °F - 15.8 °F 55% 30.03 in 10.0 mi Calm Calm - N/A   Clear
6:13 PM 28.4 °F 24.6 °F 14.0 °F 55% 30.03 in 10.0 mi South 3.5 mph - N/A   Clear
6:33 PM 28.4 °F 22.2 °F 14.0 °F 55% 30.03 in 10.0 mi SSW 5.8 mph - N/A   Clear
6:53 PM 26.6 °F - 14.0 °F 59% 30.03 in 10.0 mi Calm Calm - N/A   Clear
7:13 PM 24.8 °F - 14.0 °F 64% 30.04 in 10.0 mi Calm Calm - N/A   Clear
7:33 PM 21.2 °F - 14.0 °F 74% 30.03 in 10.0 mi Calm Calm - N/A   Clear
7:53 PM 21.2 °F - 12.2 °F 68% 30.04 in 10.0 mi Calm Calm - N/A   Clear
8:13 PM 19.4 °F - 12.2 °F 74% 30.04 in 10.0 mi Calm Calm - N/A   Clear
8:33 PM 19.4 °F - 12.2 °F 74% 30.04 in 10.0 mi Calm Calm - N/A   Clear
8:53 PM 17.6 °F - 10.4 °F 73% 30.04 in 10.0 mi Calm Calm - N/A   Clear
9:13 PM 15.8 °F - 10.4 °F 79% 30.05 in 10.0 mi Calm Calm - N/A   Clear
9:33 PM 15.8 °F - 8.6 °F 73% 30.05 in 10.0 mi Calm Calm - N/A   Clear
9:53 PM 14.0 °F - 8.6 °F 79% 30.06 in 10.0 mi Calm Calm - N/A   Clear
10:13 PM 12.2 °F - 6.8 °F 79% 30.05 in 10.0 mi Calm Calm - N/A   Clear
10:33 PM 10.4 °F - 6.8 °F 85% 30.06 in 10.0 mi Calm Calm - N/A   Clear
10:53 PM 10.4 °F - 6.8 °F 85% 30.06 in 10.0 mi Calm Calm - N/A   Clear
11:13 PM 10.4 °F - 5.0 °F 79% 30.06 in 10.0 mi Calm Calm - N/A   Clear
11:33 PM 8.6 °F - 3.2 °F 79% 30.06 in 10.0 mi Calm Calm - N/A   Clear
11:53 PM 8.6 °F - 3.2 °F 79% 30.06 in 10.0 mi Calm Calm - N/A   Clear